• In Deutschland
  • Länderverzeichnis
  • Für 7 Tage
  • Wassertemperatur
  • Satellitenkarten
  • Wetterkarte
  • Widgets
  • user-avatar
    Anmelden

    Stündliche Wetter Pabna

    Heute, 20 November, Montag

    Zeit Temperatur Niederschläge Wind Luftdruck Luftfeuchtigkeit
    00:00 +26°C° 0 mm 1 m/S 757 mmHg 66%
    01:00 +26°C° 0 mm 1 m/S 757 mmHg 67%
    02:00 +26°C° 0 mm 1 m/S 756 mmHg 69%
    03:00 +25°C° 0 mm 1 m/S 756 mmHg 70%
    04:00 +25°C° 0 mm 1 m/S 756 mmHg 71%
    05:00 +25°C° 0 mm 1 m/S 757 mmHg 72%
    06:00 +23°C° 0 mm 0 m/S 757 mmHg 73%
    07:00 +24°C° 0 mm 0 m/S 757 mmHg 68%
    08:00 +26°C° 0 mm 0 m/S 758 mmHg 62%
    09:00 +29°C° 0 mm 1 m/S 758 mmHg 57%
    10:00 +30°C° 0 mm 1 m/S 758 mmHg 51%
    11:00 +31°C° 0 mm 2 m/S 758 mmHg 46%
    12:00 +34°C° 0 mm 2 m/S 758 mmHg 40%
    13:00 +34°C° 0 mm 3 m/S 757 mmHg 38%
    14:00 +34°C° 0 mm 3 m/S 756 mmHg 36%
    15:00 +35°C° 0 mm 3 m/S 755 mmHg 34%
    16:00 +33°C° 0 mm 3 m/S 755 mmHg 37%
    17:00 +31°C° 0 mm 3 m/S 755 mmHg 40%
    18:00 +29°C° 0 mm 2 m/S 755 mmHg 43%
    19:00 +29°C° 0 mm 2 m/S 755 mmHg 45%
    20:00 +28°C° 0 mm 2 m/S 756 mmHg 47%
    21:00 +27°C° 0 mm 2 m/S 756 mmHg 48%
    22:00 +27°C° 0 mm 2 m/S 756 mmHg 49%
    23:00 +26°C° 0 mm 2 m/S 756 mmHg 51%

    Morgen, 21 November, Dienstag

    Zeit Temperatur Niederschläge Wind Luftdruck Luftfeuchtigkeit
    00:00 +26°C° 0 mm 1 m/S 756 mmHg 52%
    01:00 +25°C° 0 mm 2 m/S 756 mmHg 54%
    02:00 +25°C° 0 mm 2 m/S 756 mmHg 55%
    03:00 +25°C° 0 mm 2 m/S 756 mmHg 57%
    04:00 +24°C° 0 mm 2 m/S 756 mmHg 58%
    05:00 +24°C° 0 mm 2 m/S 757 mmHg 59%
    06:00 +23°C° 0 mm 2 m/S 757 mmHg 60%
    07:00 +25°C° 0 mm 3 m/S 758 mmHg 55%
    08:00 +26°C° 0 mm 4 m/S 758 mmHg 49%
    09:00 +27°C° 0 mm 4 m/S 759 mmHg 44%
    10:00 +29°C° 0 mm 5 m/S 759 mmHg 39%
    11:00 +30°C° 0 mm 5 m/S 758 mmHg 34%
    12:00 +32°C° 0 mm 5 m/S 758 mmHg 29%
    13:00 +32°C° 0 mm 5 m/S 757 mmHg 28%
    14:00 +32°C° 0 mm 5 m/S 756 mmHg 28%
    15:00 +32°C° 0 mm 5 m/S 755 mmHg 27%
    16:00 +30°C° 0 mm 4 m/S 755 mmHg 30%
    17:00 +28°C° 0 mm 3 m/S 755 mmHg 33%
    18:00 +26°C° 0 mm 3 m/S 756 mmHg 36%
    19:00 +25°C° 0 mm 3 m/S 756 mmHg 37%
    20:00 +25°C° 0 mm 3 m/S 757 mmHg 37%
    21:00 +24°C° 0 mm 3 m/S 757 mmHg 38%
    22:00 +22°C° 0 mm 3 m/S 757 mmHg 38%
    23:00 +22°C° 0 mm 3 m/S 757 mmHg 39%

    übermorgen, 22 November, Mittwoch

    Zeit Temperatur Niederschläge Wind Luftdruck Luftfeuchtigkeit
    00:00 +21°C° 0 mm 2 m/S 757 mmHg 39%
    01:00 +20°C° 0 mm 2 m/S 757 mmHg 39%
    02:00 +20°C° 0 mm 2 m/S 756 mmHg 39%
    03:00 +19°C° 0 mm 2 m/S 756 mmHg 40%
    04:00 +19°C° 0 mm 2 m/S 756 mmHg 40%
    05:00 +18°C° 0 mm 2 m/S 756 mmHg 40%
    06:00 +18°C° 0 mm 2 m/S 756 mmHg 40%
    07:00 +20°C° 0 mm 2 m/S 757 mmHg 38%
    08:00 +21°C° 0 mm 3 m/S 758 mmHg 36%
    09:00 +24°C° 0 mm 3 m/S 759 mmHg 35%
    10:00 +25°C° 0 mm 3 m/S 758 mmHg 33%
    11:00 +27°C° 0 mm 3 m/S 757 mmHg 32%
    12:00 +28°C° 0 mm 4 m/S 757 mmHg 31%
    13:00 +29°C° 0 mm 3 m/S 756 mmHg 31%
    14:00 +29°C° 0 mm 3 m/S 755 mmHg 30%
    15:00 +29°C° 0 mm 3 m/S 755 mmHg 30%
    16:00 +28°C° 0 mm 3 m/S 755 mmHg 34%
    17:00 +26°C° 0 mm 3 m/S 755 mmHg 39%
    18:00 +25°C° 0 mm 2 m/S 755 mmHg 43%
    19:00 +24°C° 0 mm 2 m/S 755 mmHg 45%
    20:00 +23°C° 0 mm 2 m/S 756 mmHg 46%
    21:00 +22°C° 0 mm 3 m/S 757 mmHg 47%
    22:00 +21°C° 0 mm 3 m/S 757 mmHg 47%
    23:00 +21°C° 0 mm 3 m/S 757 mmHg 47%

    23 November, Donnerstag

    Zeit Temperatur Niederschläge Wind Luftdruck Luftfeuchtigkeit
    00:00 +20°C° 0 mm 3 m/S 756 mmHg 47%
    01:00 +20°C° 0 mm 3 m/S 756 mmHg 47%
    02:00 +20°C° 0 mm 3 m/S 756 mmHg 47%
    03:00 +19°C° 0 mm 3 m/S 756 mmHg 47%
    04:00 +19°C° 0 mm 3 m/S 756 mmHg 48%
    05:00 +19°C° 0 mm 2 m/S 756 mmHg 48%
    06:00 +18°C° 0 mm 2 m/S 756 mmHg 48%
    07:00 +20°C° 0 mm 3 m/S 757 mmHg 47%
    08:00 +22°C° 0 mm 3 m/S 758 mmHg 45%
    09:00 +24°C° 0 mm 3 m/S 759 mmHg 44%
    10:00 +25°C° 0 mm 3 m/S 758 mmHg 44%
    11:00 +27°C° 0 mm 3 m/S 758 mmHg 44%
    12:00 +28°C° 0 mm 3 m/S 757 mmHg 45%
    13:00 +29°C° 0 mm 3 m/S 756 mmHg 44%
    14:00 +29°C° 0 mm 3 m/S 755 mmHg 43%
    15:00 +29°C° 0 mm 3 m/S 755 mmHg 41%
    16:00 +28°C° 0 mm 3 m/S 755 mmHg 46%
    17:00 +27°C° 0 mm 2 m/S 755 mmHg 50%
    18:00 +25°C° 0 mm 2 m/S 755 mmHg 54%
    19:00 +25°C° 0 mm 2 m/S 756 mmHg 56%
    20:00 +24°C° 0 mm 2 m/S 756 mmHg 58%
    21:00 +24°C° 0 mm 2 m/S 757 mmHg 60%
    22:00 +22°C° 0 mm 3 m/S 757 mmHg 60%
    23:00 +22°C° 0 mm 3 m/S 757 mmHg 61%

    24 November, Freitag

    Zeit Temperatur Niederschläge Wind Luftdruck Luftfeuchtigkeit
    00:00 +21°C° 0 mm 3 m/S 757 mmHg 62%
    01:00 +21°C° 0 mm 3 m/S 757 mmHg 62%
    02:00 +20°C° 0 mm 3 m/S 756 mmHg 62%
    03:00 +20°C° 0 mm 3 m/S 756 mmHg 61%
    04:00 +20°C° 0 mm 3 m/S 756 mmHg 61%
    05:00 +19°C° 0 mm 3 m/S 757 mmHg 61%
    06:00 +19°C° 0 mm 2 m/S 757 mmHg 60%
    07:00 +20°C° 0 mm 3 m/S 758 mmHg 57%
    08:00 +22°C° 0 mm 3 m/S 758 mmHg 53%
    09:00 +24°C° 0 mm 3 m/S 759 mmHg 50%
    10:00 +26°C° 0 mm 3 m/S 758 mmHg 46%
    11:00 +27°C° 0 mm 3 m/S 758 mmHg 43%
    12:00 +28°C° 0 mm 3 m/S 757 mmHg 40%
    13:00 +29°C° 0 mm 3 m/S 757 mmHg 38%
    14:00 +29°C° 0 mm 3 m/S 756 mmHg 36%
    15:00 +29°C° 0 mm 3 m/S 755 mmHg 34%
    16:00 +28°C° 0 mm 3 m/S 755 mmHg 38%
    17:00 +27°C° 0 mm 2 m/S 756 mmHg 42%
    18:00 +25°C° 0 mm 2 m/S 756 mmHg 46%
    19:00 +24°C° 0 mm 2 m/S 756 mmHg 48%
    20:00 +24°C° 0 mm 2 m/S 757 mmHg 50%
    21:00 +23°C° 0 mm 2 m/S 757 mmHg 52%
    22:00 +23°C° 0 mm 2 m/S 757 mmHg 54%
    23:00 +21°C° 0 mm 2 m/S 757 mmHg 55%

    25 November, Samstag

    Zeit Temperatur Niederschläge Wind Luftdruck Luftfeuchtigkeit
    00:00 +21°C° 0 mm 2 m/S 757 mmHg 57%
    01:00 +20°C° 0 mm 2 m/S 757 mmHg 58%
    02:00 +20°C° 0 mm 2 m/S 757 mmHg 59%
    03:00 +20°C° 0 mm 2 m/S 757 mmHg 60%
    04:00 +19°C° 0 mm 2 m/S 757 mmHg 60%
    05:00 +19°C° 0 mm 2 m/S 758 mmHg 60%
    06:00 +19°C° 0 mm 2 m/S 758 mmHg 61%
    07:00 +20°C° 0 mm 2 m/S 759 mmHg 57%
    08:00 +23°C° 0 mm 2 m/S 759 mmHg 53%
    09:00 +24°C° 0 mm 3 m/S 760 mmHg 50%
    10:00 +25°C° 0 mm 3 m/S 759 mmHg 46%
    11:00 +27°C° 0 mm 3 m/S 759 mmHg 43%
    12:00 +28°C° 0 mm 3 m/S 759 mmHg 40%
    13:00 +29°C° 0 mm 2 m/S 758 mmHg 38%
    14:00 +29°C° 0 mm 2 m/S 757 mmHg 36%
    15:00 +29°C° 0 mm 2 m/S 757 mmHg 34%
    16:00 +28°C° 0 mm 2 m/S 757 mmHg 38%
    17:00 +27°C° 0 mm 2 m/S 757 mmHg 42%
    18:00 +25°C° 0 mm 2 m/S 757 mmHg 46%
    19:00 +25°C° 0 mm 2 m/S 758 mmHg 49%
    20:00 +24°C° 0 mm 2 m/S 758 mmHg 51%
    21:00 +23°C° 0 mm 2 m/S 759 mmHg 54%
    22:00 +23°C° 0 mm 2 m/S 759 mmHg 57%
    23:00 +21°C° 0 mm 2 m/S 759 mmHg 59%
    Mehr zeigen